Weather History for MMUN - November, 2013

Change the Weather History Date:

Wednesday, November 6, 2013

  Actual Average Record
Temperature  
Mean Temperature 78 °F -  
Max Temperature 84 °F 84 °F 91 °F (2002)
Min Temperature 71 °F 69 °F 57 °F (2010)
Cooling Degree Days 12    
Growing Degree Days 28 (Base 50)    
Moisture  
Dew Point 75 °F    
Average Humidity 92    
Maximum Humidity 100    
Minimum Humidity 74    
Precipitation  
Precipitation 0.80 in - - ()
Sea Level Pressure  
Sea Level Pressure 29.90 in    
Wind  
Wind Speed 3 mph ()    
Max Wind Speed 8 mph    
Max Gust Speed -    
Visibility 6.7 miles    
Events Rain , Thunderstorm    
Averages and records for this station are not official NWS values.
T = Trace of Precipitation, MM = Missing Value Source: Averaged Metar Reports

Daily Weather History Graph

Daily Weather History Graph

Search for Another Location

Airport or City:

Trip Planner

Search our weather history database for the weather conditions in past years. The results will help you decide how hot, cold, wet, or windy it might be!

Date:

Astronomy

Nov. 06, 2013 Rise Set
Actual Time 5:52 AM CST 5:09 PM CST
Civil Twilight 5:29 AM CST 5:32 PM CST
Nautical Twilight 5:03 AM CST 5:58 PM CST
Astronomical Twilight 4:37 AM CST 6:24 PM CST
Moon 8:57 AM CST (11/6) 8:21 PM CST (11/6)
Length of Visible Light 12h 02m
Length of Day
11h 16m
Waxing Crescent, 14% of the Moon is Illuminated
Nov 6
Waxing Crescent
Nov 9
First Quarter
Nov 17
Full
Nov 25
Last Quarter
Dec 2
New

Hourly Weather History & Observations

Time (CST) Temp. Heat Index Dew Point Humidity Pressure Visibility Wind Dir Wind Speed Gust Speed Precip Events Conditions
12:45 AM 73.4 °F - 73.4 °F 100% 29.89 in 7.0 mi Calm Calm - N/A   Mostly Cloudy
1:44 AM 73.4 °F - 71.6 °F 94% 29.87 in 7.0 mi WNW 6.9 mph - N/A   Mostly Cloudy
2:46 AM 71.6 °F - 71.6 °F 100% 29.84 in 7.0 mi Calm Calm - N/A   Mostly Cloudy
3:45 AM 71.6 °F - 71.6 °F 100% 29.87 in 7.0 mi Calm Calm - N/A   Mostly Cloudy
4:44 AM 71.6 °F - 71.6 °F 100% 29.87 in 7.0 mi Calm Calm - N/A   Scattered Clouds
5:43 AM 73.4 °F - 73.4 °F 100% 29.87 in 3.0 mi North 5.8 mph - N/A Rain Rain
6:44 AM 75.2 °F - 75.2 °F 100% 29.91 in 5.0 mi WNW 5.8 mph - N/A Rain , Thunderstorm Light Rain
7:25 AM 75.2 °F - 75.2 °F 100% 2.99 in 5.0 mi Calm Calm - N/A Rain Light Rain
7:43 AM 75.2 °F - 75.2 °F 100% 29.92 in 5.0 mi North 3.5 mph - N/A Rain Light Rain
8:46 AM 78.8 °F - 77.0 °F 94% 29.95 in 9.0 mi North 4.6 mph - N/A   Mostly Cloudy
9:40 AM 80.6 °F 87.1 °F 77.0 °F 89% 29.92 in 7.0 mi NNE 3.5 mph - N/A   Mostly Cloudy
10:42 AM 82.4 °F 88.2 °F 73.4 °F 74% 29.93 in 7.0 mi NE 3.5 mph - N/A   Mostly Cloudy
11:49 AM 84.2 °F 94.1 °F 77.0 °F 79% 29.91 in 7.0 mi NE 6.9 mph - N/A   Mostly Cloudy
12:47 PM 84.2 °F 94.1 °F 77.0 °F 79% 29.88 in 7.0 mi NNE 5.8 mph - N/A   Mostly Cloudy
1:45 PM 84.2 °F 94.1 °F 77.0 °F 79% 29.87 in 7.0 mi NE 8.1 mph - N/A   Mostly Cloudy
2:40 PM 82.4 °F 90.9 °F 77.0 °F 84% 29.87 in 7.0 mi ENE 4.6 mph - N/A   Mostly Cloudy
3:40 PM 82.4 °F 90.9 °F 77.0 °F 84% 29.86 in 7.0 mi East 4.6 mph - N/A   Mostly Cloudy
4:45 PM 80.6 °F 87.1 °F 77.0 °F 89% 29.88 in 7.0 mi North 3.5 mph - N/A   Mostly Cloudy
5:43 PM 78.8 °F - 75.2 °F 89% 29.90 in 7.0 mi ENE 2.3 mph - N/A   Mostly Cloudy
6:46 PM 78.8 °F - 75.2 °F 89% 29.92 in 7.0 mi NE 2.3 mph - N/A   Mostly Cloudy
7:40 PM 77.0 °F - 75.2 °F 94% 29.93 in 7.0 mi NNW 2.3 mph - N/A   Scattered Clouds
8:40 PM 77.0 °F - 75.2 °F 94% 29.94 in 7.0 mi NNW 3.5 mph - N/A   Scattered Clouds
9:43 PM 75.2 °F - 75.2 °F 100% 29.94 in 7.0 mi NNW 3.5 mph - N/A   Scattered Clouds
10:48 PM 77.0 °F - 75.2 °F 94% 29.93 in 7.0 mi Calm Calm - N/A   Scattered Clouds
11:44 PM 75.2 °F - 75.2 °F 100% 29.92 in 7.0 mi NNW 3.5 mph - N/A   Scattered Clouds